SCP
0 0 0 0 0 0 0 0 0 0 0 0 0 0 0 0 0 0 0 0 0 0 -0 -0 -0 -0 0 -0 0 0 -0 0 0 0 0 -0 -0 -0 -0 0 0 0 -0
0 0 0 0 0 0 0 0 0 0 0 0 0 0 0 0 0 0 0 0 0 0 0 0 -0 0 0 0 0 0 0 0 0 0 0 0 0 0 0 0 -0 0 0
0 0 1 0 0 0 1 1 1 1 0 0 0 0 0 0 0 0 0 0 0 0 0 0 0 0 0 0 0 0 0 0 0 0 0 0 0 0 0 0 0 -0 -0
0 0 0 1 1 0 1 1 1 1 1 0 0 0 0 0 0 0 0 0 0 0 0 0 0 0 0 0 0 0 0 0 0 0 0 0 0 0 0 0 0 0 0
0 0 0 0 1 1 1 1 1 1 1 1 1 0 0 0 0 0 0 0 0 0 0 0 0 0 0 0 0 0 0 0 0 0 0 0 0 0 0 0 0 0 0
0 0 0 0 0 1 0 0 0 1 1 1 1 1 1 1 0 0 0 0 0 0 0 0 0 0 0 0 0 0 0 0 0 0 0 0 0 0 0 0 0 0 0
0 0 0 0 0 0 0 0 0 0 0 1 1 1 1 1 1 1 0 0 0 0 0 0 0 0 0 0 0 0 0 0 0 0 0 0 0 0 0 0 0 0 0
0 0 0 0 0 0 0 0 0 0 0 0 1 0 0 1 1 1 0 0 0 0 0 0 0 0 0 0 0 0 0 0 0 0 0 0 0 0 0 0 0 0 0
0 0 0 0 0 0 0 0 0 0 0 0 0 0 0 0 0 0 0 0 0 0 0 0 0 0 0 0 0 0 0 0 0 0 0 0 0 0 0 0 0 0 0
0 0 0 0 0 0 0 0 0 0 0 0 0 0 0 0 0 0 0 0 0 0 0 0 0 0 0 0 0 0 0 0 0 0 0 0 0 0 0 0 0 0 0
0 0 0 0 0 0 0 0 0 0 0 0 0 0 0 0 0 0 0 0 0 0 0 0 0 0 0 0 0 0 0 0 0 0 0 0 0 0 0 0 0 0 0
0 0 0 0 0 0 0 0 0 0 0 0 0 0 0 0 0 0 0 0 0 0 0 0 0 0 0 0 0 0 0 0 0 0 0 0 0 0 0 0 0 0 0
0 0 0 0 0 0 0 0 0 0 0 0 0 0 0 0 0 0 0 0 0 0 0 0 0 0 0 0 0 0 0 0 0 0 0 0 0 0 0 0 0 0 0
0 0 0 0 0 0 0 0 0 0 0 0 0 0 0 0 0 0 0 0 0 0 0 0 0 0 0 0 0 0 0 0 0 0 0 0 0 0 0 0 0 0 0
0 0 0 0 0 0 0 0 -0 0 0 0 0 0 0 0 0 0 0 0 0 0 0 0 0 0 0 0 0 0 0 0 0 0 0 0 0 0 0 0 0 0 0
0 0 0 0 0 0 0 0 -0 -0 -0 0 0 0 0 0 0 0 0 0 0 0 0 0 0 0 0 0 0 0 0 0 0 0 0 0 0 0 0 0 0 0 0
0 0 0 0 0 0 0 0 0 0 0 0 0 0 0 0 0 0 0 0 0 0 0 0 0 0 0 0 0 0 0 0 0 0 0 0 0 0 0 0 0 0 0
0 0 0 0 0 0 0 0 0 0 0 0 0 0 0 0 0 0 0 0 0 0 0 0 0 0 0 0 0 0 0 0 0 0 0 0 0 0 0 0 0 0 0
0 0 0 0 0 0 0 0 0 0 0 0 0 0 0 0 0 0 0 0 0 0 0 0 0 0 0 0 0 0 0 0 0 0 0 0 0 0 0 0 0 0 0
0 0 0 0 0 0 0 0 0 0 0 0 0 0 0 0 0 0 0 1 0 0 0 0 0 0 0 0 0 0 0 0 0 0 0 0 0 0 0 0 0 0 0
0 0 0 0 0 0 0 0 0 0 0 0 0 0 0 0 0 0 0 0 0 0 0 0 0 0 0 0 0 0 0 0 0 0 0 0 0 0 0 0 0 0 0
0 0 0 0 0 0 0 0 0 0 0 0 0 0 0 0 0 0 0 0 0 0 0 0 0 0 0 0 0 0 0 0 0 0 0 0 0 0 0 0 0 0 0
0 0 0 0 0 0 0 0 0 0 0 0 0 0 0 0 0 0 0 0 0 0 0 0 0 0 0 0 0 0 0 0 0 0 0 0 0 0 0 0 0 0 0
0 0 0 0 0 0 0 0 0 0 0 0 0 0 0 0 0 0 0 0 0 0 0 0 0 0 0 0 0 0 0 0 0 0 0 0 0 0 0 0 0 0 0
0 0 0 0 0 0 0 0 0 0 0 0 0 0 0 0 0 0 0 0 0 0 0 0 0 0 0 0 0 0 0 0 0 0 0 0 0 0 0 0 0 0 0
0 0 0 0 0 0 0 0 0 0 0 0 0 0 0 0 0 0 0 0 0 0 0 0 0 0 0 0 0 0 0 0 0 0 0 0 0 0 0 0 0 0 0
Wind_Speed_500mb
12 15 17 18 23 29 36 36 38 42 41 39 38 37 36 36 41 44 43 40 39 37 35 31 26 25 27 28 29 29 31 30 26 20 17 17 22 26 28 29 32 34 30
17 14 14 14 18 24 30 35 42 43 46 43 42 41 40 37 40 42 40 39 40 39 34 23 22 23 25 25 27 29 32 29 25 22 19 23 27 27 28 27 28 32 35
15 12 13 16 22 26 29 35 39 42 47 46 45 43 42 40 42 41 40 41 41 40 30 23 23 23 20 22 26 29 31 28 27 25 26 29 27 27 30 29 37 41 44
11 12 15 20 25 27 28 32 38 42 48 49 47 45 44 45 47 45 43 43 40 37 30 25 26 26 21 22 28 31 29 29 27 30 32 35 28 30 35 40 39 39 39
14 14 17 24 30 30 32 32 35 42 48 49 50 47 46 47 49 46 46 45 41 38 34 29 27 27 27 27 28 30 29 29 33 33 31 34 34 36 38 36 29 24 26
16 12 14 30 36 31 32 34 34 39 45 50 49 50 50 51 52 50 49 45 41 39 38 32 33 32 31 32 32 32 31 34 34 34 38 35 36 35 35 30 26 22 16
17 13 21 27 32 33 32 33 35 37 41 46 48 50 54 54 53 52 52 48 43 40 40 36 33 32 35 35 39 38 37 36 36 39 37 41 36 30 28 28 25 20 15
15 15 12 25 34 36 35 36 38 38 38 43 47 50 53 58 56 54 51 48 46 44 44 39 36 34 39 42 44 42 40 39 38 37 36 35 34 24 21 26 23 20 16
11 12 16 15 15 25 29 36 38 42 44 42 48 49 53 57 59 58 54 49 48 47 45 41 38 41 46 48 45 45 43 40 37 36 35 33 31 23 21 17 21 21 20
13 13 11 9 15 15 15 22 30 30 36 51 48 52 52 52 57 58 54 52 50 49 46 42 42 49 54 51 48 48 42 40 37 35 33 32 29 26 24 21 19 19 20
22 20 17 17 12 11 15 13 16 21 30 34 41 54 54 55 55 57 54 52 50 50 47 42 45 52 56 56 51 53 47 43 40 35 31 28 22 22 23 21 20 21 22
42 31 29 27 24 21 14 17 17 17 16 20 36 47 50 56 61 63 62 55 51 51 48 43 46 53 54 55 57 55 52 46 41 38 34 26 19 14 18 16 14 14 16
48 44 38 35 35 29 34 23 25 24 22 19 18 24 38 52 58 57 53 50 52 54 52 48 48 55 60 58 60 57 54 48 44 44 38 33 25 18 11 15 11 9 13
41 44 44 41 38 40 45 33 35 34 31 26 24 21 23 23 29 44 53 57 57 61 62 60 58 60 60 56 56 55 55 50 46 46 42 39 30 24 20 16 14 7 6
37 36 38 41 42 41 43 61 51 44 42 38 32 30 26 24 26 33 52 71 69 66 70 68 63 63 64 59 55 54 54 51 47 46 45 41 35 28 26 24 20 15 12
31 31 31 35 38 39 37 36 54 49 44 44 43 39 37 31 27 32 36 50 81 75 72 74 66 67 67 62 58 57 53 51 49 46 45 43 37 31 26 25 26 23 18
33 30 28 29 34 38 37 35 36 42 39 40 42 44 43 40 33 23 28 46 66 71 61 74 72 70 70 65 58 61 55 52 50 47 45 42 37 31 36 33 27 29 26
38 33 29 28 28 38 38 37 36 35 36 32 37 39 41 42 37 32 32 37 56 60 79 84 80 72 70 69 64 55 52 50 49 46 45 44 41 43 42 42 36 29 25
38 34 29 28 28 33 37 34 31 34 35 32 34 36 39 38 40 40 46 49 53 70 62 71 72 78 73 70 59 51 46 46 45 45 45 49 52 47 47 48 44 38 34
31 28 23 23 28 29 35 33 28 29 30 33 36 39 37 34 38 41 46 49 62 63 67 57 54 64 80 70 55 46 49 52 50 52 53 52 56 58 56 54 50 45 41
17 21 15 13 22 28 31 33 33 35 35 38 39 36 35 34 37 37 48 47 47 43 53 46 45 49 63 69 64 48 49 56 56 59 59 59 60 59 58 58 56 54 52
20 20 15 14 13 20 23 31 35 36 34 38 37 36 39 38 38 39 43 59 55 56 55 43 45 42 38 57 61 66 49 35 48 48 54 57 58 62 64 63 60 55 55
24 24 17 19 16 16 22 26 30 33 34 35 37 39 39 39 40 41 41 52 54 52 57 52 53 53 63 75 85 54 40 27 39 32 42 48 49 51 49 46 45 47 44
34 27 18 19 13 12 16 22 27 31 34 33 37 41 38 36 38 40 47 46 54 54 49 53 51 58 73 78 84 73 41 29 27 23 26 33 39 36 39 46 45 35 32
37 34 21 16 13 9 12 18 22 27 30 27 28 34 31 29 35 40 46 41 50 49 60 52 51 56 75 81 63 62 63 61 35 27 35 33 35 36 35 31 29 25 27
39 36 26 17 14 8 6 11 16 20 23 26 22 23 21 22 26 40 53 45 54 50 55 58 52 69 64 73 74 70 60 52 47 49 42 49 38 32 30 23 20 22 20
Wind_Direction_500mb
231 228 233 225 215 211 211 203 199 205 200 193 189 182 179 179 177 174 175 174 173 176 179 178 183 190 185 192 192 194 195 192 192 190 182 165 151 142 140 141 137 133 130
305 249 220 214 208 204 200 201 201 203 204 201 194 190 186 186 182 180 181 182 178 177 181 200 202 197 193 195 196 196 193 191 190 186 177 157 148 145 146 143 144 133 133
308 279 198 194 205 206 206 201 200 203 203 204 200 197 194 191 191 186 185 182 182 187 198 207 185 194 188 187 190 187 185 184 183 177 167 155 147 148 144 132 137 138 139
294 274 205 193 205 210 215 209 204 205 202 205 204 201 201 199 198 190 189 186 190 198 203 205 193 191 186 182 175 179 180 180 178 168 159 149 144 151 145 140 139 144 153
298 261 223 191 196 205 216 214 210 209 204 203 205 206 206 205 203 199 196 193 198 202 203 207 221 188 187 186 182 179 185 183 169 162 157 150 153 150 149 157 158 162 157
319 287 238 205 198 206 221 219 214 213 211 210 208 208 211 212 211 205 202 202 204 207 210 214 222 195 189 181 178 177 171 164 158 154 155 161 156 155 160 163 167 173 174
335 290 245 223 219 216 214 220 221 217 216 217 215 211 214 217 215 210 205 206 211 215 217 214 217 197 187 179 175 173 169 165 163 161 167 160 164 170 169 174 178 186 201
329 324 305 252 228 230 219 221 218 218 219 219 219 218 217 219 217 213 211 213 218 219 222 219 218 199 187 180 176 179 171 168 166 167 172 170 169 169 185 184 190 198 208
316 327 319 292 279 234 219 222 225 225 219 219 215 219 222 225 224 220 217 221 225 227 224 222 214 195 188 182 182 178 174 171 171 175 181 186 192 199 221 222 209 204 208
271 296 297 310 303 311 282 223 220 220 225 224 222 219 221 227 228 225 224 227 228 226 224 225 210 194 188 183 186 181 181 181 179 184 191 199 206 217 229 238 225 219 204
259 257 269 264 278 282 303 296 264 250 247 238 233 228 226 228 230 233 229 228 225 225 223 222 206 195 189 188 191 186 188 190 184 187 187 192 209 226 229 229 230 218 200
282 272 265 266 260 265 258 276 276 265 256 255 248 231 237 236 234 231 228 225 223 221 220 217 205 197 191 193 190 190 194 192 192 189 184 188 206 235 211 200 204 209 206
283 277 276 271 269 270 270 277 276 277 272 269 258 246 242 240 246 250 213 226 224 219 216 214 207 203 201 198 194 195 195 196 197 194 192 196 209 230 241 205 191 184 194
268 270 268 266 268 271 260 286 286 281 273 264 262 265 255 232 252 258 217 221 227 219 217 214 207 209 208 205 203 200 200 201 201 201 200 202 213 215 233 218 217 200 192
276 263 259 259 259 264 274 263 275 281 274 268 260 256 256 255 235 233 240 229 223 221 221 218 212 209 210 208 206 207 207 208 209 209 209 210 212 220 227 233 210 216 225
284 269 254 251 250 247 250 251 262 267 263 262 260 257 254 254 246 228 232 241 220 211 220 225 220 213 211 211 209 209 212 214 216 214 214 213 214 215 236 234 228 221 230
290 277 262 243 238 236 231 231 227 249 258 251 251 255 255 249 245 225 235 225 231 213 222 228 230 219 214 214 216 219 215 216 219 220 218 215 216 215 223 236 235 223 217
295 286 268 254 241 231 228 220 232 242 252 252 250 251 256 249 242 216 210 225 220 224 233 224 224 226 222 217 213 213 215 218 220 221 220 212 211 219 220 227 234 229 228
299 291 282 255 245 228 225 232 238 254 256 258 255 248 252 247 238 232 212 214 224 226 223 228 226 225 226 222 218 223 228 226 221 218 216 218 217 218 224 228 231 234 231
296 291 284 259 247 235 225 230 237 238 253 259 259 251 248 246 236 240 220 223 219 228 226 228 222 232 224 222 214 218 215 213 214 216 217 218 223 222 225 223 228 229 232
298 285 288 273 242 236 223 225 238 245 253 259 260 259 255 251 236 233 218 219 220 209 220 229 231 228 224 226 208 200 226 222 216 215 216 216 223 226 222 223 226 229 229
339 319 309 278 241 223 222 222 236 251 261 266 263 257 253 249 232 227 229 225 226 216 216 216 208 193 226 211 191 207 202 206 208 206 209 212 209 211 215 214 218 225 228
353 340 313 301 252 225 223 227 236 253 263 270 261 256 254 246 233 227 225 228 232 222 223 218 217 206 205 210 210 191 189 207 182 179 176 191 194 179 184 207 207 210 199
358 351 329 299 278 238 227 229 240 255 264 268 265 259 252 242 234 228 225 237 227 225 221 213 221 226 229 207 198 204 205 215 184 170 166 170 184 200 213 181 190 201 205
4 2 353 330 304 262 227 232 244 260 269 265 256 260 248 243 231 224 219 230 223 217 215 215 232 235 213 204 198 207 227 237 203 178 170 175 177 171 184 183 188 203 224
9 7 5 346 335 315 261 239 250 259 254 244 246 263 251 240 228 216 218 222 223 216 218 214 211 216 204 192 198 206 217 221 217 227 216 180 180 168 183 195 207 211 229
Wind_Speed_850mb
12 15 17 18 23 29 36 36 38 42 41 39 38 37 36 36 41 44 43 40 39 37 35 31 26 25 27 28 29 29 31 30 26 20 17 17 22 26 28 29 32 34 30
17 14 14 14 18 24 30 35 42 43 46 43 42 41 40 37 40 42 40 39 40 39 34 23 22 23 25 25 27 29 32 29 25 22 19 23 27 27 28 27 28 32 35
15 12 13 16 22 26 29 35 39 42 47 46 45 43 42 40 42 41 40 41 41 40 30 23 23 23 20 22 26 29 31 28 27 25 26 29 27 27 30 29 37 41 44
11 12 15 20 25 27 28 32 38 42 48 49 47 45 44 45 47 45 43 43 40 37 30 25 26 26 21 22 28 31 29 29 27 30 32 35 28 30 35 40 39 39 39
14 14 17 24 30 30 32 32 35 42 48 49 50 47 46 47 49 46 46 45 41 38 34 29 27 27 27 27 28 30 29 29 33 33 31 34 34 36 38 36 29 24 26
16 12 14 30 36 31 32 34 34 39 45 50 49 50 50 51 52 50 49 45 41 39 38 32 33 32 31 32 32 32 31 34 34 34 38 35 36 35 35 30 26 22 16
17 13 21 27 32 33 32 33 35 37 41 46 48 50 54 54 53 52 52 48 43 40 40 36 33 32 35 35 39 38 37 36 36 39 37 41 36 30 28 28 25 20 15
15 15 12 25 34 36 35 36 38 38 38 43 47 50 53 58 56 54 51 48 46 44 44 39 36 34 39 42 44 42 40 39 38 37 36 35 34 24 21 26 23 20 16
11 12 16 15 15 25 29 36 38 42 44 42 48 49 53 57 59 58 54 49 48 47 45 41 38 41 46 48 45 45 43 40 37 36 35 33 31 23 21 17 21 21 20
13 13 11 9 15 15 15 22 30 30 36 51 48 52 52 52 57 58 54 52 50 49 46 42 42 49 54 51 48 48 42 40 37 35 33 32 29 26 24 21 19 19 20
22 20 17 17 12 11 15 13 16 21 30 34 41 54 54 55 55 57 54 52 50 50 47 42 45 52 56 56 51 53 47 43 40 35 31 28 22 22 23 21 20 21 22
42 31 29 27 24 21 14 17 17 17 16 20 36 47 50 56 61 63 62 55 51 51 48 43 46 53 54 55 57 55 52 46 41 38 34 26 19 14 18 16 14 14 16
48 44 38 35 35 29 34 23 25 24 22 19 18 24 38 52 58 57 53 50 52 54 52 48 48 55 60 58 60 57 54 48 44 44 38 33 25 18 11 15 11 9 13
41 44 44 41 38 40 45 33 35 34 31 26 24 21 23 23 29 44 53 57 57 61 62 60 58 60 60 56 56 55 55 50 46 46 42 39 30 24 20 16 14 7 6
37 36 38 41 42 41 43 61 51 44 42 38 32 30 26 24 26 33 52 71 69 66 70 68 63 63 64 59 55 54 54 51 47 46 45 41 35 28 26 24 20 15 12
31 31 31 35 38 39 37 36 54 49 44 44 43 39 37 31 27 32 36 50 81 75 72 74 66 67 67 62 58 57 53 51 49 46 45 43 37 31 26 25 26 23 18
33 30 28 29 34 38 37 35 36 42 39 40 42 44 43 40 33 23 28 46 66 71 61 74 72 70 70 65 58 61 55 52 50 47 45 42 37 31 36 33 27 29 26
38 33 29 28 28 38 38 37 36 35 36 32 37 39 41 42 37 32 32 37 56 60 79 84 80 72 70 69 64 55 52 50 49 46 45 44 41 43 42 42 36 29 25
38 34 29 28 28 33 37 34 31 34 35 32 34 36 39 38 40 40 46 49 53 70 62 71 72 78 73 70 59 51 46 46 45 45 45 49 52 47 47 48 44 38 34
31 28 23 23 28 29 35 33 28 29 30 33 36 39 37 34 38 41 46 49 62 63 67 57 54 64 80 70 55 46 49 52 50 52 53 52 56 58 56 54 50 45 41
17 21 15 13 22 28 31 33 33 35 35 38 39 36 35 34 37 37 48 47 47 43 53 46 45 49 63 69 64 48 49 56 56 59 59 59 60 59 58 58 56 54 52
20 20 15 14 13 20 23 31 35 36 34 38 37 36 39 38 38 39 43 59 55 56 55 43 45 42 38 57 61 66 49 35 48 48 54 57 58 62 64 63 60 55 55
24 24 17 19 16 16 22 26 30 33 34 35 37 39 39 39 40 41 41 52 54 52 57 52 53 53 63 75 85 54 40 27 39 32 42 48 49 51 49 46 45 47 44
34 27 18 19 13 12 16 22 27 31 34 33 37 41 38 36 38 40 47 46 54 54 49 53 51 58 73 78 84 73 41 29 27 23 26 33 39 36 39 46 45 35 32
37 34 21 16 13 9 12 18 22 27 30 27 28 34 31 29 35 40 46 41 50 49 60 52 51 56 75 81 63 62 63 61 35 27 35 33 35 36 35 31 29 25 27
39 36 26 17 14 8 6 11 16 20 23 26 22 23 21 22 26 40 53 45 54 50 55 58 52 69 64 73 74 70 60 52 47 49 42 49 38 32 30 23 20 22 20
Wind_Direction_850mb
231 228 233 225 215 211 211 203 199 205 200 193 189 182 179 179 177 174 175 174 173 176 179 178 183 190 185 192 192 194 195 192 192 190 182 165 151 142 140 141 137 133 130
305 249 220 214 208 204 200 201 201 203 204 201 194 190 186 186 182 180 181 182 178 177 181 200 202 197 193 195 196 196 193 191 190 186 177 157 148 145 146 143 144 133 133
308 279 198 194 205 206 206 201 200 203 203 204 200 197 194 191 191 186 185 182 182 187 198 207 185 194 188 187 190 187 185 184 183 177 167 155 147 148 144 132 137 138 139
294 274 205 193 205 210 215 209 204 205 202 205 204 201 201 199 198 190 189 186 190 198 203 205 193 191 186 182 175 179 180 180 178 168 159 149 144 151 145 140 139 144 153
298 261 223 191 196 205 216 214 210 209 204 203 205 206 206 205 203 199 196 193 198 202 203 207 221 188 187 186 182 179 185 183 169 162 157 150 153 150 149 157 158 162 157
319 287 238 205 198 206 221 219 214 213 211 210 208 208 211 212 211 205 202 202 204 207 210 214 222 195 189 181 178 177 171 164 158 154 155 161 156 155 160 163 167 173 174
335 290 245 223 219 216 214 220 221 217 216 217 215 211 214 217 215 210 205 206 211 215 217 214 217 197 187 179 175 173 169 165 163 161 167 160 164 170 169 174 178 186 201
329 324 305 252 228 230 219 221 218 218 219 219 219 218 217 219 217 213 211 213 218 219 222 219 218 199 187 180 176 179 171 168 166 167 172 170 169 169 185 184 190 198 208
316 327 319 292 279 234 219 222 225 225 219 219 215 219 222 225 224 220 217 221 225 227 224 222 214 195 188 182 182 178 174 171 171 175 181 186 192 199 221 222 209 204 208
271 296 297 310 303 311 282 223 220 220 225 224 222 219 221 227 228 225 224 227 228 226 224 225 210 194 188 183 186 181 181 181 179 184 191 199 206 217 229 238 225 219 204
259 257 269 264 278 282 303 296 264 250 247 238 233 228 226 228 230 233 229 228 225 225 223 222 206 195 189 188 191 186 188 190 184 187 187 192 209 226 229 229 230 218 200
282 272 265 266 260 265 258 276 276 265 256 255 248 231 237 236 234 231 228 225 223 221 220 217 205 197 191 193 190 190 194 192 192 189 184 188 206 235 211 200 204 209 206
283 277 276 271 269 270 270 277 276 277 272 269 258 246 242 240 246 250 213 226 224 219 216 214 207 203 201 198 194 195 195 196 197 194 192 196 209 230 241 205 191 184 194
268 270 268 266 268 271 260 286 286 281 273 264 262 265 255 232 252 258 217 221 227 219 217 214 207 209 208 205 203 200 200 201 201 201 200 202 213 215 233 218 217 200 192
276 263 259 259 259 264 274 263 275 281 274 268 260 256 256 255 235 233 240 229 223 221 221 218 212 209 210 208 206 207 207 208 209 209 209 210 212 220 227 233 210 216 225
284 269 254 251 250 247 250 251 262 267 263 262 260 257 254 254 246 228 232 241 220 211 220 225 220 213 211 211 209 209 212 214 216 214 214 213 214 215 236 234 228 221 230
290 277 262 243 238 236 231 231 227 249 258 251 251 255 255 249 245 225 235 225 231 213 222 228 230 219 214 214 216 219 215 216 219 220 218 215 216 215 223 236 235 223 217
295 286 268 254 241 231 228 220 232 242 252 252 250 251 256 249 242 216 210 225 220 224 233 224 224 226 222 217 213 213 215 218 220 221 220 212 211 219 220 227 234 229 228
299 291 282 255 245 228 225 232 238 254 256 258 255 248 252 247 238 232 212 214 224 226 223 228 226 225 226 222 218 223 228 226 221 218 216 218 217 218 224 228 231 234 231
296 291 284 259 247 235 225 230 237 238 253 259 259 251 248 246 236 240 220 223 219 228 226 228 222 232 224 222 214 218 215 213 214 216 217 218 223 222 225 223 228 229 232
298 285 288 273 242 236 223 225 238 245 253 259 260 259 255 251 236 233 218 219 220 209 220 229 231 228 224 226 208 200 226 222 216 215 216 216 223 226 222 223 226 229 229
339 319 309 278 241 223 222 222 236 251 261 266 263 257 253 249 232 227 229 225 226 216 216 216 208 193 226 211 191 207 202 206 208 206 209 212 209 211 215 214 218 225 228
353 340 313 301 252 225 223 227 236 253 263 270 261 256 254 246 233 227 225 228 232 222 223 218 217 206 205 210 210 191 189 207 182 179 176 191 194 179 184 207 207 210 199
358 351 329 299 278 238 227 229 240 255 264 268 265 259 252 242 234 228 225 237 227 225 221 213 221 226 229 207 198 204 205 215 184 170 166 170 184 200 213 181 190 201 205
4 2 353 330 304 262 227 232 244 260 269 265 256 260 248 243 231 224 219 230 223 217 215 215 232 235 213 204 198 207 227 237 203 178 170 175 177 171 184 183 188 203 224
9 7 5 346 335 315 261 239 250 259 254 244 246 263 251 240 228 216 218 222 223 216 218 214 211 216 204 192 198 206 217 221 217 227 216 180 180 168 183 195 207 211 229